Location: Unspecified
(43.4354°N, 0.0000°E)
Time: 22:43:25
(UTC+00:00)

S-56A Canister/Altair - Pass Details

Date: 02 July 2019
Orbit: 632 x 2500 km, 38.9° (Epoch: 18 July)

Event Time Altitude Azimuth Distance (km) Brightness Sun altitude
Rises 09:59:26 0° 196° (SSW) 6,147 12.2 57.2°
Reaches altitude 10° 10:04:40 10° 184° (S) 5,150 12.1 58.1°
Maximum altitude 10:15:11 24° 139° (SE) 3,902 12.1 59.7°
Drops below altitude 10° 10:24:22 10° 93° (E) 4,488 12.0 61.1°
Sets 10:28:26 0° 81° (E) 5,216 12.0 61.6°
